Weather History for Port Aransas, TX

Change the Weather History Date:

Thursday, November 28, 2013

  Actual Average (KCRP) Record (KCRP)
Temperature  
Mean Temperature 50 °F 62 °F  
Max Temperature 57 °F 72 °F 89 °F (1949)
Min Temperature 42 °F 52 °F 27 °F (2011)
Degree Days  
Heating Degree Days 16 5  
Month to date heating degree days 80  
Since 1 July heating degree days 90  
Cooling Degree Days 0 3  
Month to date cooling degree days 120  
Year to date cooling degree days 3471  
Moisture  
Dew Point 40 °F    
Average Humidity 70    
Maximum Humidity 92    
Minimum Humidity 42    
Precipitation  
Precipitation 0.00 in 0.05 in 0.56 in (1969)
Month to date precipitation 1.88  
Year to date precipitation 29.84  
Snow  
Snow 0.00 in - - ()
Month to date snowfall  
Since 1 July snowfall  
Since 1 September snowfall  
Snow Depth -    
Sea Level Pressure  
Sea Level Pressure 30.38 in    
Wind  
Wind Speed 8 mph (NNE)    
Max Wind Speed 14 mph    
Max Gust Speed -    
Visibility 10 miles    
Events      
T = Trace of Precipitation, MM = Missing Value Source: NWS Daily Summary

Daily Weather History Graph

Daily Weather History Graph

Search for Another Location

Airport:

Trip Planner

Search our weather history database for the weather conditions in past years. The results will help you decide how hot, cold, wet, or windy it might be!

Date:

Astronomy

Nov. 28, 2013 Rise Set
Actual Time 6:59 AM CST 5:32 PM CST
Civil Twilight 6:34 AM CST 5:58 PM CST
Nautical Twilight 6:05 AM CST 6:26 PM CST
Astronomical Twilight 5:37 AM CST 6:55 PM CST
Moon 2:25 AM CST (11/28) 2:23 PM CST (11/28)
Length of Visible Light 11h 23m
Length of Day
10h 32m
Waning Crescent, 22% of the Moon is Illuminated
Nov 28
Waning Crescent
Dec 2
New
Dec 9
First Quarter
Dec 17
Full
Dec 25
Last Quarter

Hourly Weather History & Observations

Time (CST) Temp. Windchill Dew Point Humidity Pressure Visibility Wind Dir Wind Speed Gust Speed Precip Events Conditions
12:15 AM 42.8 °F 39.3 °F 32.5 °F 67% 30.40 in 10.0 mi NNE 5.8 mph - N/A   Clear
12:35 AM 42.3 °F 37.9 °F 32.4 °F 68% 30.39 in 10.0 mi NNE 6.9 mph - N/A   Clear
12:55 AM 42.8 °F 39.3 °F 32.9 °F 68% 30.39 in 10.0 mi NNE 5.8 mph - N/A   Clear
1:15 AM 42.3 °F 38.6 °F 33.4 °F 71% 30.38 in 10.0 mi NNE 5.8 mph - N/A   Clear
1:35 AM 43.3 °F 38.6 °F 34.7 °F 72% 30.38 in 10.0 mi North 8.1 mph - N/A   Clear
1:55 AM 43.3 °F 39.2 °F 34.5 °F 71% 30.38 in 10.0 mi NNE 6.9 mph - N/A   Clear
2:15 AM 43.5 °F 39.4 °F 34.7 °F 71% 30.38 in 10.0 mi North 6.9 mph - N/A   Clear
2:35 AM 43.0 °F 38.8 °F 35.6 °F 75% 30.38 in 10.0 mi NNE 6.9 mph - N/A   Clear
2:55 AM 43.2 °F 38.4 °F 35.1 °F 73% 30.37 in 10.0 mi NNE 8.1 mph - N/A   Clear
3:15 AM 43.9 °F 38.8 °F 33.6 °F 67% 30.37 in 10.0 mi NNE 9.2 mph - N/A   Clear
3:35 AM 43.9 °F 39.3 °F 33.8 °F 68% 30.37 in 10.0 mi NNE 8.1 mph - N/A   Clear
3:55 AM 43.7 °F 38.6 °F 34.3 °F 70% 30.37 in 10.0 mi NNE 9.2 mph - N/A   Clear
4:15 AM 43.7 °F 39.1 °F 35.2 °F 72% 30.36 in 10.0 mi NNE 8.1 mph - N/A   Clear
4:35 AM 43.7 °F 39.1 °F 36.1 °F 75% 30.36 in 10.0 mi North 8.1 mph - N/A   Clear
4:55 AM 43.7 °F 39.1 °F 36.1 °F 75% 30.36 in 10.0 mi NNE 8.1 mph - N/A   Clear
5:15 AM 43.3 °F 38.6 °F 36.1 °F 76% 30.37 in 10.0 mi North 8.1 mph - N/A   Clear
5:35 AM 43.2 °F 37.9 °F 36.5 °F 77% 30.37 in 10.0 mi NNE 9.2 mph - N/A   Clear
5:55 AM 43.2 °F 38.4 °F 37.0 °F 79% 30.36 in 10.0 mi NNE 8.1 mph - N/A   Clear
6:15 AM 43.5 °F 39.4 °F 37.4 °F 79% 30.37 in 10.0 mi NNE 6.9 mph - N/A   Clear
6:35 AM 43.0 °F 39.5 °F 36.9 °F 79% 30.37 in 10.0 mi NNE 5.8 mph - N/A   Clear
6:55 AM 43.7 °F 40.3 °F 36.7 °F 76% 30.38 in 10.0 mi North 5.8 mph - N/A   Clear
7:15 AM 42.8 °F 38.0 °F 36.9 °F 80% 30.39 in 10.0 mi North 8.1 mph - N/A   Clear
7:35 AM 44.6 °F 40.2 °F 37.4 °F 76% 30.39 in 10.0 mi North 8.1 mph - N/A   Clear
7:55 AM 46.2 °F 41.2 °F 36.7 °F 69% 30.40 in 10.0 mi NNE 10.4 mph - N/A   Clear
8:15 AM 46.6 °F - 36.9 °F 69% 30.41 in 10.0 mi NNE 9.2 mph - N/A   Clear
8:35 AM 47.1 °F - 37.2 °F 68% 30.41 in 10.0 mi NNE 10.4 mph - N/A   Clear
8:55 AM 47.3 °F - 38.1 °F 70% 30.42 in 10.0 mi NNE 9.2 mph - N/A   Clear
9:15 AM 48.4 °F - 37.9 °F 67% 30.42 in 10.0 mi NNE 11.5 mph - N/A   Clear
9:35 AM 49.1 °F - 37.6 °F 64% 30.43 in 10.0 mi NNE 12.7 mph - N/A   Clear
9:55 AM 49.8 °F - 37.9 °F 64% 30.43 in 10.0 mi NNE 11.5 mph - N/A   Clear
10:15 AM 50.7 °F - 38.3 °F 62% 30.43 in 10.0 mi NNE 13.8 mph - N/A   Clear
10:35 AM 51.1 °F - 37.9 °F 61% 30.42 in 10.0 mi NNE 12.7 mph - N/A   Clear
10:55 AM 52.5 °F - 38.7 °F 59% 30.43 in 10.0 mi North 11.5 mph - N/A   Clear
11:15 AM 52.7 °F - 38.1 °F 58% 30.42 in 10.0 mi NNE 11.5 mph - N/A   Clear
11:35 AM 53.2 °F - 38.1 °F 57% 30.41 in 10.0 mi NNE 11.5 mph - N/A   Clear
11:55 AM 54.3 °F - 38.7 °F 55% 30.40 in 10.0 mi NNE 10.4 mph - N/A   Clear
12:15 PM 54.1 °F - 39.0 °F 57% 30.40 in 10.0 mi NNE 12.7 mph - N/A   Clear
12:35 PM 54.0 °F - 38.5 °F 56% 30.38 in 10.0 mi North 12.7 mph - N/A   Clear
12:55 PM 55.4 °F - 39.6 °F 55% 30.37 in 10.0 mi NNE 10.4 mph - N/A   Clear
1:15 PM 55.9 °F - 41.0 °F 57% 30.36 in 10.0 mi NNE 10.4 mph - N/A   Clear
1:35 PM 55.6 °F - 42.1 °F 60% 30.35 in 10.0 mi NNE 11.5 mph - N/A   Clear
1:55 PM 55.9 °F - 42.6 °F 61% 30.35 in 10.0 mi NNE 10.4 mph - N/A   Clear
2:15 PM 56.5 °F - 43.7 °F 62% 30.34 in 10.0 mi NNE 8.1 mph - N/A   Clear
2:35 PM 56.5 °F - 43.2 °F 61% 30.34 in 10.0 mi NNE 10.4 mph - N/A   Clear
2:55 PM 57.2 °F - 42.4 °F 58% 30.34 in 10.0 mi NNE 11.5 mph - N/A   Clear
3:15 PM 57.0 °F - 41.0 °F 55% 30.34 in 10.0 mi NNE 10.4 mph - N/A   Clear
3:35 PM 57.2 °F - 39.4 °F 51% 30.34 in 10.0 mi NNE 9.2 mph - N/A   Clear
3:55 PM 57.4 °F - 36.3 °F 45% 30.34 in 10.0 mi NE 10.4 mph - N/A   Clear
4:15 PM 57.2 °F - 34.3 °F 42% 30.34 in 10.0 mi NE 10.4 mph - N/A   Clear
4:35 PM 56.7 °F - 37.0 °F 48% 30.35 in 10.0 mi NE 9.2 mph - N/A   Clear
4:55 PM 56.3 °F - 41.4 °F 57% 30.35 in 10.0 mi NE 8.1 mph - N/A   Clear
5:15 PM 55.8 °F - 41.2 °F 58% 30.35 in 10.0 mi NE 8.1 mph - N/A   Clear
5:35 PM 55.4 °F - 42.4 °F 62% 30.35 in 10.0 mi NE 8.1 mph - N/A   Clear
5:55 PM 54.1 °F - 42.8 °F 66% 30.35 in 10.0 mi NNE 5.8 mph - N/A   Clear
6:15 PM 53.6 °F - 42.8 °F 67% 30.37 in 10.0 mi NNE 8.1 mph - N/A   Clear
6:35 PM 53.1 °F - 43.9 °F 71% 30.37 in 10.0 mi NE 8.1 mph - N/A   Clear
6:55 PM 52.9 °F - 45.0 °F 74% 30.37 in 10.0 mi NNE 8.1 mph - N/A   Clear
7:15 PM 53.2 °F - 45.7 °F 76% 30.38 in 10.0 mi NE 6.9 mph - N/A   Clear
7:35 PM 53.1 °F - 46.6 °F 79% 30.39 in 10.0 mi NE 6.9 mph - N/A   Clear
7:55 PM 52.5 °F - 46.6 °F 80% 30.39 in 10.0 mi NNE 8.1 mph - N/A   Clear
8:15 PM 52.2 °F - 47.3 °F 83% 30.40 in 10.0 mi NNE 8.1 mph - N/A   Clear
8:35 PM 52.5 °F - 47.8 °F 84% 30.40 in 10.0 mi NE 8.1 mph - N/A   Clear
8:55 PM 52.7 °F - 48.2 °F 85% 30.40 in 10.0 mi NNE 8.1 mph - N/A   Mostly Cloudy
9:15 PM 52.7 °F - 48.2 °F 85% 30.40 in 10.0 mi NNE 6.9 mph - N/A   Mostly Cloudy
9:35 PM 52.7 °F - 48.6 °F 86% 30.40 in 10.0 mi NNE 8.1 mph - N/A   Scattered Clouds
9:55 PM 52.5 °F - 48.9 °F 88% 30.40 in 10.0 mi NNE 8.1 mph - N/A   Clear
10:15 PM 51.8 °F - 48.7 °F 89% 30.40 in 10.0 mi NE 5.8 mph - N/A   Clear
10:35 PM 52.7 °F - 50.0 °F 91% 30.40 in 10.0 mi NE 6.9 mph - N/A   Clear
10:55 PM 54.5 °F - 51.4 °F 89% 30.40 in 10.0 mi NE 9.2 mph - N/A   Clear
11:15 PM 54.7 °F - 51.4 °F 89% 30.40 in 10.0 mi NNE 10.4 mph - N/A   Clear
11:35 PM 52.3 °F - 49.8 °F 91% 30.40 in 10.0 mi NNE 8.1 mph - N/A   Clear
11:55 PM 51.8 °F - 49.5 °F 92% 30.40 in 10.0 mi NNE 10.4 mph - N/A   Clear